This is the latest recevied weather packets stored in our database for station/object SA3PJN-WX. If no packets are shown the sender has not sent any weather packets the latest 10 day(s).
| Time | Temp. | Humidity | Pressure | Rain* | Wind** | Luminosity | Snow |
|---|---|---|---|---|---|---|---|
| 1777781919 | 3.33° C | 67% | 966.2 hPa | - | - | - | - |
| 1777781589 | 3.33° C | 67% | 966.1 hPa | - | - | - | - |
| 1777781289 | 3.33° C | 68% | 966.1 hPa | - | - | - | - |
| 1777780989 | 2.78° C | 70% | 966 hPa | - | - | - | - |
| 1777780689 | 2.78° C | 72% | 966.2 hPa | - | - | - | - |
| 1777780359 | 2.22° C | 74% | 966.1 hPa | - | - | - | - |
| 1777780059 | 1.67° C | 73% | 966.3 hPa | - | - | - | - |
| 1777779759 | 1.67° C | 73% | 966.3 hPa | - | - | - | - |
| 1777779459 | 1.67° C | 72% | 966.2 hPa | - | - | - | - |
| 1777779159 | 1.67° C | 73% | 966.2 hPa | - | - | - | - |
| 1777778859 | 1.67° C | 72% | 966.2 hPa | - | - | - | - |
| 1777778558 | 1.67° C | 73% | 966.4 hPa | - | - | - | - |
| 1777778259 | 1.11° C | 76% | 966.2 hPa | - | - | - | - |
| 1777777929 | 0.56° C | 78% | 966.2 hPa | - | - | - | - |
| 1777777628 | 0.56° C | 79% | 966.1 hPa | - | - | - | - |
| 1777777328 | 0° C | 81% | 966.2 hPa | - | - | - | - |
| 1777776998 | 0° C | 81% | 966.2 hPa | - | - | - | - |
| 1777776698 | -0.56° C | 82% | 966.3 hPa | - | - | - | - |
| 1777776398 | -0.56° C | 82% | 966.2 hPa | - | - | - | - |
| 1777776098 | -0.56° C | 83% | 966.2 hPa | - | - | - | - |
| 1777775798 | -0.56° C | 83% | 966 hPa | - | - | - | - |
| 1777775498 | -0.56° C | 83% | 966.1 hPa | - | - | - | - |
| 1777775198 | -0.56° C | 83% | 966 hPa | - | - | - | - |
| 1777774898 | -0.56° C | 83% | 966 hPa | - | - | - | - |
| 1777774598 | -0.56° C | 84% | 966 hPa | - | - | - | - |
* Rain since midnight (hover to see other rain measurements)
** Current wind speed in m/s (hover to see current wind gust speed)